Flag for Italy Weather past 2 weeks in Messina, Italy

Now
59 °F

Passing clouds.


Feels Like: 55 °F
Forecast: 58 / 65 °F
Wind: 22 mph from North

Location: Reggio Calabria

Current Time: Mar 31, 2015 at 3:21:14 AM

Latest Report: Mar 30, 2015 at 11:50 PM


Visibility: N/A

Pressure: 29.86 "Hg

Humidity: 72%

Dew point: 50 °F

Location of MessinaLocation

Historic Weather in Messina — Graph

°F

Messina temperature yesterday

Maximum temperature yesterday: 68 °F (at 1:50 PM)
Minimum temperature yesterday: 52 °F (at 6:50 AM)
Average temperature yesterday: 61 °F

Past Weeks' High & Low Weather Summary

 TemperatureHumidityPressure
High70 °F (Mar 25, 3:50 PM)100% (Mar 25, 7:50 PM)30.27 "Hg (Mar 25, 7:50 PM)
Low37 °F (Mar 25, 7:50 PM)37% (Mar 30, 9:50 AM)29.56 "Hg (Mar 25, 6:00 AM)
Average58 °F73%29.93 "Hg
* Reported Mar 15 10:50 PM — Mar 30 11:50 PM, Messina, Weather by CustomWeather, © 2015

Note: Actual official high and low records may vary slightly from our data, if they occured in-between our weather recording intervals... More about our weather records

Advertising

Messina weather history for previous 24 hours

 ConditionsComfort  
Time TempWeatherWind HumidityBarometerVisibility
11:50 PM
Mon, Mar 30
59 °FPassing clouds.22 mph72%29.86 "HgN/A
10:50 PM61 °FPassing clouds.20 mph68%29.83 "HgN/A
9:50 PM61 °FPassing clouds.23 mph68%29.83 "HgN/A
8:50 PM61 °FPassing clouds.15 mph72%29.80 "HgN/A
7:50 PM61 °FScattered clouds.15 mph72%29.80 "HgN/A
6:50 PM61 °FScattered clouds.17 mph68%29.77 "HgN/A
5:50 PM61 °FScattered clouds.22 mph68%29.77 "HgN/A
4:50 PM63 °FBroken clouds.16 mph59%29.77 "HgN/A
3:50 PM63 °FScattered clouds.13 mph64%29.77 "HgN/A
2:50 PM64 °FScattered clouds.14 mph52%29.80 "HgN/A
1:50 PM68 °FPassing clouds.14 mph49%29.83 "HgN/A
12:50 PM64 °FPassing clouds.14 mph49%29.86 "HgN/A
11:50 AM64 °FSunny.15 mph46%29.86 "Hg10 mi
10:50 AM64 °FSunny.14 mph46%29.89 "Hg10 mi
9:50 AM63 °FPassing clouds.7 mph37%29.89 "HgN/A
8:50 AM57 °FPassing clouds.6 mph51%29.92 "HgN/A
7:50 AM52 °FSunny.7 mph77%29.92 "Hg10 mi
6:50 AM52 °FClear.9 mph82%29.92 "Hg10 mi
Weather by CustomWeather, © 2015

See weather overviewHow to use our weather pages